Regional Weather Roundup
Issued by NWS

Home | Current Version | Previous Version | Text Only | Print | Product List | Glossary On
Versions: 1 2 3 4 5 6 7 8 9 10 11 12 13 14 15 16 17 18 19 20 21 22 23 24 25 26 27 28 29 30 31 32 33 34 35 36 37 38 39 40 41 42 43 44 45 46 47 48 49 50
000
ASUS43 KDMX 011307
RWRIA

WEATHER ROUNDUP FOR IOWA
NATIONAL WEATHER SERVICE DES MOINES IA
800 AM CDT TUE SEP 01 2015

NOTE: "FAIR" INDICATES FEW OR NO CLOUDS BELOW 12,000 FEET WITH NO
SIGNIFICANT WEATHER AND/OR OBSTRUCTIONS TO VISIBILITY.

* - THESE STATIONS ARE NOT NWS STATIONS...THUS NOT UNDER NWS
QUALITY CONTROL.  THEY ALSO DO NOT REPORT WEATHER SUCH
AS PRECIPITATION OR FOG.

IAZ001>003-012>014-020>022-031>034-043>046-011400-
   NORTHWEST IOWA

CITY           SKY/WX    TMP DP  RH WIND       PRES   REMARKS
CARROLL *      SUNNY     70  70 100 SW13      29.95R
CHEROKEE *     SUNNY     66  66 100 CALM      29.92S FOG
DENISON *      SUNNY     70  66  88 S9G16     29.93S
LE MARS *      SUNNY     70  68  94 S7        29.91S
ORANGE CITY *  SUNNY     68  66  94 S5        29.92R
SHELDON *      SUNNY     66  66 100 SE5       29.91S FOG
SIOUX CITY     MOSUNNY   68  64  87 SE8       29.90R
SPENCER        MOSUNNY   65  63  93 E3        29.94R FOG
STORM LAKE *   SUNNY     70  68  94 SW9       29.94R
$$

IAZ055>058-069>071-079>083-090>094-011400-
   SOUTHWEST IOWA

CITY           SKY/WX    TMP DP  RH WIND       PRES   REMARKS
ATLANTIC *     SUNNY     70  70 100 S7        29.98R FOG
AUDUBON *      SUNNY     70  66  88 S5        29.99R
CLARINDA *     SUNNY     70  70 100 S3        30.01R
COUNCIL BLFS * SUNNY     70  68  94 S8        29.97R
CRESTON *      SUNNY     70  68  94 S10       30.02S FOG
LAMONI         SUNNY     70  68  93 S9        30.02R FOG
RED OAK *      CLOUDY    70  70 100 CALM      29.98R
SHENANDOAH *   SUNNY     72  70  94 S8        29.98S
$$

IAZ047>049-059>061-072>074-084-011400-
   CENTRAL IOWA

CITY           SKY/WX    TMP DP  RH WIND       PRES   REMARKS
AMES           SUNNY     67  67 100 SE5       29.98R FOG
ANKENY *       SUNNY     72  72 100 S6        29.98S
CHARITON *     SUNNY     72  68  88 S8        30.02R
DES MOINES     MOSUNNY   72  68  87 S9        29.98R
GRINNELL*      SUNNY     70  68  94 S7        30.02R
KNOXVILLE *    SUNNY     72  68  88 S9        29.99S
MARSHALLTOWN   SUNNY     70  67  90 S7        29.99R FOG
PELLA *        SUNNY     73  72  94 S7        30.02R
PERRY *          N/A     70  68  94 S8        29.97R FOG
$$

IAZ004>006-015-016-023>025-035-036-011400-
   NORTH CENTRAL IOWA

CITY           SKY/WX    TMP DP  RH WIND       PRES   REMARKS
ALGONA *       SUNNY     68  66  94 S8        29.95R FOG
CLARION *      FOG       68  68 100 S9        29.96S VSB 3/4
ESTHERVILLE    MOSUNNY   64  64 100 S6        29.94R FOG
FORT DODGE *   SUNNY     68  64  88 SE7       29.96S
MASON CITY     SUNNY     67  67 100 S6        29.98R FOG
FOREST CITY *    N/A     66  66 100 SE3       29.96S FOG
IOWA FALLS *     N/A     68  68 100 SE5       29.99S FOG
$$

IAZ007>011-017>019-026>030-037>042-050>054-066-011400-
   NORTHEAST IOWA

CITY           SKY/WX    TMP DP  RH WIND       PRES   REMARKS
CEDAR RAPIDS   SUNNY     70  70 100 S7        30.01R
CHARLES CITY * SUNNY     70  70 100 S5        29.98S FOG
CLINTON *      SUNNY     72  70  94 S5        30.06R
DECORAH *      SUNNY     70  70 100 CALM      29.99R FOG
DUBUQUE        SUNNY     71  70  96 S7        30.04R FOG
MONTICELLO *   SUNNY     72  70  94 S3        30.02R FOG
OELWEIN *        N/A     70  70 100 S6        30.01R FOG
WATERLOO       SUNNY     71  68  90 S5        29.98R
$$

IAZ064-065-067-068-078-011400-
   EAST CENTRAL IOWA

CITY           SKY/WX    TMP DP  RH WIND       PRES   REMARKS
DAVENPORT      SUNNY     74  70  87 S8        30.05R
IOWA CITY      SUNNY     71  68  90 SE3       30.03S FOG
MT. PLEASANT * SUNNY     74  70  85 S6        30.05R FOG
MUSCATINE *    SUNNY     73  70  88 S6        30.04R
QUAD CITIES    MOSUNNY   75  70  84 CALM      30.04R HAZE
$$

IAZ062-063-075>077-085>089-095>099-011400-
   SOUTHEAST IOWA

CITY           SKY/WX    TMP DP  RH WIND       PRES   REMARKS
BURLINGTON     SUNNY     73  72  96 S5        30.06R FOG
FAIRFIELD *    SUNNY     72  70  94 S5        30.03S
FORT MADISON * SUNNY     73  72  94 S7        30.06R
KEOKUK *       SUNNY     75  72  88 SW9       30.05R
OSKALOOSA *      N/A     72  68  88 S6        30.02S
CENTERVILLE *  SUNNY     72  68  88 S8        30.05S
OTTUMWA        SUNNY     72  70  93 S9        30.01R
WASHINGTON *     N/A    N/A N/A N/A MISG        N/A
$$

ABBREVIATIONS USED IN REMARKS
   TC - TEMPERATURES IN CELSIUS
  WCI - WIND CHILL INDEX
   HX - HEAT INDEX
  VSB - VISIBILITY
$$



USA.gov is the U.S. government's official web portal to all federal, state and local government web resources and services.